Regional Weather Roundup
Issued by NWS Goodland, KS

Home | Current Version | Previous Version | Graphics & Text | Print | Product List | Glossary On
Versions: 1 2 3 4 5 6 7 8 9 10 11 12 13 14 15 16 17 18 19 20 21 22 23 24 25 26 27 28 29 30 31 32 33 34 35 36 37 38 39 40 41 42 43 44 45 46 47 48 49 50
371
ASUS43 KGLD 282159
RWRGLD

GOODLAND FORECAST AREA HOURLY WEATHER ROUNDUP
NATIONAL WEATHER SERVICE GOODLAND KS
400 PM MDT SAT MAY 28 2016

...OFFICIAL OBSERVATIONS...

CITY           SKY/WX    TMP DP  RH WIND       PRES   REMARKS
GOODLAND KS    SUNNY     76  45  33 VRB6      29.98F
HILL CITY KS   MOSUNNY   78  49  35 SW6       29.94S
IMPERIAL NEB   MOSUNNY   74  47  38 W8        29.95S
MCCOOK NEB     MOSUNNY   76  51  41 NW7       29.93S
AKRON CO       SUNNY     71  38  29 VRB3      30.01S
BURLINGTON CO  SUNNY     73  40  30 W6        30.01F
LIMON CO       MOSUNNY   66  38  35 VRB3      30.06R
$$

...UNOFFICIAL OBSERVATIONS...

CITY           SKY/WX    TMP DP  RH WIND       PRES   REMARKS
GOVE KS          N/A     78  32  18 MISG        N/A
LENORA KS        N/A     74  32  21 MISG        N/A
SHARON SPRINGS   N/A     76  53  44 S7          N/A
KIT CARSON CO    N/A     73  46  38 MISG        N/A
YUMA CO          N/A     74  45  35 W5G12       N/A
$$




USA.gov is the U.S. government's official web portal to all federal, state and local government web resources and services.